| time (UTC) | temp F | wind direction | speed MPH | gust MPH | rain 1hr in | rain 24hr in | rain mn in | humidity % | barometer mb |
| 20260508120846 | 48 | 229 | 0.0 | 1.0 | 0.00 | 0.00 | 0.00 | 42 | 1008.1 |
| 20260508120343 | 48 | 255 | 0.0 | 1.0 | 0.00 | 0.00 | 0.00 | 44 | 1008.0 |
| 20260508115843 | 47 | 257 | 0.0 | 1.0 | 0.00 | 0.00 | 0.00 | 44 | 1008.0 |
| 20260508115345 | 46 | 328 | 1.0 | 3.0 | 0.00 | 0.00 | 0.00 | 45 | 1007.9 |
| 20260508114843 | 46 | 188 | 1.0 | 3.0 | 0.00 | 0.00 | 0.00 | 46 | 1007.9 |
| 20260508114340 | 45 | 250 | 0.0 | 3.0 | 0.00 | 0.00 | 0.00 | 46 | 1007.9 |
| 20260508113839 | 44 | 188 | 0.0 | 4.0 | 0.00 | 0.00 | 0.00 | 49 | 1007.9 |
| 20260508113337 | 44 | 191 | 1.0 | 4.0 | 0.00 | 0.00 | 0.00 | 50 | 1007.9 |
| 20260508112836 | 43 | 237 | 0.0 | 4.0 | 0.00 | 0.00 | 0.00 | 52 | 1007.9 |
| 20260508112329 | 42 | 215 | 0.0 | 1.0 | 0.00 | 0.00 | 0.00 | 52 | 1007.9 |
| 20260508111822 | 42 | 215 | 0.0 | 2.0 | 0.00 | 0.00 | 0.00 | 53 | 1008.0 |
| 20260508111316 | 41 | 215 | 1.0 | 2.0 | 0.00 | 0.00 | 0.00 | 53 | 1007.8 |
| 20260508110854 | 40 | 215 | 0.0 | 2.0 | 0.00 | 0.00 | 0.00 | 56 | 1007.7 |
| 20260508105758 | 39 | 245 | 0.0 | 2.0 | 0.00 | 0.00 | 0.00 | 58 | 1007.6 |
| 20260508105252 | 39 | 245 | 1.0 | 2.0 | 0.00 | 0.00 | 0.00 | 59 | 1007.6 |
| 20260508105018 | 38 | 245 | 1.0 | 2.0 | 0.00 | 0.00 | 0.00 | 59 | 1007.6 |
| 20260508104241 | 37 | 245 | 1.0 | 3.0 | 0.00 | 0.00 | 0.00 | 59 | 1007.6 |
| 20260508103734 | 37 | 245 | 1.0 | 3.0 | 0.00 | 0.00 | 0.00 | 61 | 1007.7 |
| 20260508103228 | 36 | 262 | 1.0 | 2.0 | 0.00 | 0.00 | 0.00 | 61 | 1007.7 |
| 20260508102722 | 36 | 262 | 1.0 | 2.0 | 0.00 | 0.00 | 0.00 | 62 | 1007.7 |
| 20260508102216 | 35 | 262 | 1.0 | 2.0 | 0.00 | 0.00 | 0.00 | 61 | 1007.5 |
| 20260508102145 | 35 | 262 | 0.0 | 2.0 | 0.00 | 0.00 | 0.00 | 62 | 1007.4 |
| 20260508101204 | 35 | 262 | 0.0 | 2.0 | 0.00 | 0.00 | 0.00 | 61 | 1007.4 |
| 20260508100658 | 35 | 262 | 0.0 | 2.0 | 0.00 | 0.00 | 0.00 | 61 | 1007.3 |
| 20260508100152 | 35 | 262 | 0.0 | 2.0 | 0.00 | 0.00 | 0.00 | 60 | 1007.2 |
| 20260508095646 | 35 | 262 | 0.0 | 2.0 | 0.00 | 0.00 | 0.00 | 60 | 1007.0 |
| 20260508095141 | 35 | 262 | 0.0 | 2.0 | 0.00 | 0.00 | 0.00 | 60 | 1007.0 |
| 20260508094634 | 35 | 262 | 1.0 | 2.0 | 0.00 | 0.00 | 0.00 | 60 | 1007.1 |
| 20260508094128 | 36 | 262 | 1.0 | 2.0 | 0.00 | 0.00 | 0.00 | 60 | 1007.0 |
| 20260508093622 | 35 | 262 | 1.0 | 2.0 | 0.00 | 0.00 | 0.00 | 60 | 1007.1 |
| 20260508093334 | 35 | 262 | 1.0 | 2.0 | 0.00 | 0.00 | 0.00 | 61 | 1006.9 |
| 20260508092834 | 35 | 262 | 0.0 | 2.0 | 0.00 | 0.00 | 0.00 | 61 | 1006.9 |
| 20260508092104 | 35 | 262 | 0.0 | 1.0 | 0.00 | 0.00 | 0.00 | 60 | 1006.9 |
| 20260508091558 | 36 | 262 | 0.0 | 0.0 | 0.00 | 0.00 | 0.00 | 60 | 1006.9 |
| 20260508091051 | 36 | 262 | 0.0 | 2.0 | 0.00 | 0.00 | 0.00 | 59 | 1006.9 |
| 20260508090546 | 35 | 262 | 0.0 | 2.0 | 0.00 | 0.00 | 0.00 | 60 | 1006.7 |
| 20260508090040 | 35 | 262 | 0.0 | 2.0 | 0.00 | 0.00 | 0.00 | 60 | 1006.6 |
| 20260508085759 | 35 | 262 | 1.0 | 2.0 | 0.00 | 0.00 | 0.00 | 61 | 1006.5 |
| 20260508085028 | 35 | 262 | 1.0 | 2.0 | 0.00 | 0.00 | 0.00 | 62 | 1006.5 |
| 20260508084522 | 34 | 262 | 0.0 | 2.0 | 0.00 | 0.00 | 0.00 | 64 | 1006.5 |
| 20260508084016 | 34 | 262 | 0.0 | 2.0 | 0.00 | 0.00 | 0.00 | 65 | 1006.4 |
| 20260508083510 | 34 | 262 | 1.0 | 2.0 | 0.00 | 0.00 | 0.00 | 65 | 1006.3 |
| 20260508083004 | 34 | 262 | 1.0 | 2.0 | 0.00 | 0.00 | 0.00 | 65 | 1006.4 |
| 20260508082458 | 34 | 262 | 1.0 | 2.0 | 0.00 | 0.00 | 0.00 | 66 | 1006.3 |
| 20260508081952 | 34 | 262 | 0.0 | 2.0 | 0.00 | 0.00 | 0.00 | 65 | 1006.3 |
| 20260508081446 | 34 | 262 | 0.0 | 0.0 | 0.00 | 0.00 | 0.00 | 65 | 1006.3 |
| 20260508080940 | 35 | 262 | 0.0 | 0.0 | 0.00 | 0.00 | 0.00 | 65 | 1006.3 |
| 20260508080434 | 35 | 262 | 0.0 | 0.0 | 0.00 | 0.00 | 0.00 | 64 | 1006.3 |
| 20260508075928 | 35 | 262 | 0.0 | 0.0 | 0.00 | 0.00 | 0.00 | 64 | 1006.2 |
| 20260508075422 | 35 | 262 | 0.0 | 0.0 | 0.00 | 0.00 | 0.00 | 62 | 1006.1 |
| 20260508074916 | 35 | 262 | 0.0 | 0.0 | 0.00 | 0.00 | 0.00 | 63 | 1006.1 |
| 20260508074410 | 35 | 262 | 0.0 | 0.0 | 0.00 | 0.00 | 0.00 | 64 | 1006.1 |
| 20260508073904 | 35 | 262 | 0.0 | 0.0 | 0.00 | 0.00 | 0.00 | 63 | 1006.0 |
| 20260508073358 | 35 | 262 | 0.0 | 0.0 | 0.00 | 0.00 | 0.00 | 63 | 1005.9 |
| 20260508072852 | 36 | 262 | 0.0 | 0.0 | 0.00 | 0.00 | 0.00 | 63 | 1005.9 |
| 20260508072346 | 36 | 262 | 0.0 | 0.0 | 0.00 | 0.00 | 0.00 | 63 | 1005.9 |
| 20260508071839 | 36 | 262 | 0.0 | 0.0 | 0.00 | 0.00 | 0.00 | 62 | 1006.0 |
| 20260508071552 | 36 | 262 | 0.0 | 0.0 | 0.00 | 0.00 | 0.00 | 60 | 1006.1 |
| 20260508071054 | 37 | 262 | 0.0 | 0.0 | 0.00 | 0.00 | 0.00 | 60 | 1006.0 |
| 20260508070322 | 37 | 262 | 0.0 | 0.0 | 0.00 | 0.00 | 0.00 | 60 | 1006.0 |
| 20260508065816 | 37 | 262 | 0.0 | 0.0 | 0.00 | 0.00 | 0.00 | 59 | 1006.0 |
| 20260508065310 | 38 | 262 | 0.0 | 0.0 | 0.00 | 0.00 | 0.00 | 58 | 1006.1 |
| 20260508065020 | 38 | 262 | 0.0 | 0.0 | 0.00 | 0.00 | 0.00 | 57 | 1006.1 |
| 20260508064258 | 38 | 262 | 0.0 | 0.0 | 0.00 | 0.00 | 0.00 | 58 | 1006.1 |
| 20260508063752 | 38 | 262 | 0.0 | 0.0 | 0.00 | 0.00 | 0.00 | 58 | 1006.3 |
| 20260508063246 | 39 | 262 | 0.0 | 0.0 | 0.00 | 0.00 | 0.00 | 57 | 1006.3 |
| 20260508062740 | 39 | 262 | 0.0 | 0.0 | 0.00 | 0.00 | 0.00 | 54 | 1006.4 |
| 20260508062234 | 40 | 262 | 0.0 | 0.0 | 0.00 | 0.00 | 0.00 | 55 | 1006.4 |
| 20260508061728 | 40 | 262 | 0.0 | 0.0 | 0.00 | 0.00 | 0.00 | 53 | 1006.5 |
| 20260508061222 | 40 | 262 | 0.0 | 0.0 | 0.00 | 0.00 | 0.00 | 53 | 1006.6 |
| 20260508060716 | 41 | 262 | 0.0 | 0.0 | 0.00 | 0.00 | 0.00 | 53 | 1006.5 |
| 20260508060432 | 41 | 262 | 0.0 | 0.0 | 0.00 | 0.00 | 0.00 | 50 | 1006.7 |
| 20260508055704 | 41 | 262 | 0.0 | 1.0 | 0.00 | 0.00 | 0.00 | 50 | 1006.7 |
| 20260508055158 | 41 | 262 | 0.0 | 1.0 | 0.00 | 0.00 | 0.00 | 50 | 1006.7 |
| 20260508054917 | 41 | 262 | 0.0 | 1.0 | 0.00 | 0.00 | 0.00 | 50 | 1006.7 |
| 20260508054146 | 41 | 262 | 0.0 | 1.0 | 0.00 | 0.00 | 0.00 | 51 | 1006.8 |
| 20260508053640 | 41 | 262 | 0.0 | 1.0 | 0.00 | 0.00 | 0.00 | 51 | 1006.8 |
| 20260508053134 | 41 | 262 | 0.0 | 0.0 | 0.00 | 0.00 | 0.00 | 51 | 1006.8 |
| 20260508052628 | 41 | 262 | 0.0 | 0.0 | 0.00 | 0.00 | 0.00 | 52 | 1006.8 |
| 20260508052122 | 42 | 262 | 0.0 | 0.0 | 0.00 | 0.00 | 0.00 | 51 | 1006.9 |
| 20260508051616 | 42 | 262 | 0.0 | 1.0 | 0.00 | 0.01 | 0.00 | 52 | 1007.0 |
| 20260508051331 | 42 | 262 | 0.0 | 1.0 | 0.00 | 0.01 | 0.00 | 50 | 1007.0 |
| 20260508050611 | 42 | 262 | 0.0 | 1.0 | 0.00 | 0.01 | 0.00 | 49 | 1007.0 |
| 20260508050107 | 41 | 262 | 0.0 | 1.0 | 0.00 | 0.01 | 0.00 | 49 | 1007.1 |
| 20260508045606 | 41 | 262 | 0.0 | 0.0 | 0.00 | 0.01 | 0.00 | 50 | 1007.2 |
| 20260508045102 | 42 | 262 | 0.0 | 0.0 | 0.00 | 0.01 | 0.00 | 52 | 1007.1 |
| 20260508044602 | 42 | 262 | 0.0 | 0.0 | 0.00 | 0.01 | 0.00 | 52 | 1007.1 |
| 20260508044058 | 42 | 262 | 0.0 | 1.0 | 0.00 | 0.01 | 0.00 | 52 | 1007.0 |
| 20260508043559 | 42 | 262 | 0.0 | 1.0 | 0.00 | 0.01 | 0.00 | 52 | 1007.0 |
| 20260508043057 | 42 | 262 | 0.0 | 0.0 | 0.00 | 0.01 | 0.00 | 53 | 1007.1 |
| 20260508042557 | 42 | 262 | 0.0 | 0.0 | 0.00 | 0.01 | 0.00 | 50 | 1007.0 |
| 20260508042056 | 42 | 262 | 0.0 | 0.0 | 0.00 | 0.01 | 0.00 | 52 | 1007.1 |
| 20260508041819 | 42 | 262 | 0.0 | 0.0 | 0.00 | 0.01 | 0.00 | 54 | 1007.1 |
| 20260508041056 | 43 | 262 | 0.0 | 2.0 | 0.00 | 0.02 | 0.00 | 54 | 1007.3 |
| 20260508040813 | 43 | 262 | 0.0 | 2.0 | 0.00 | 0.02 | 0.00 | 56 | 1007.3 |
| 20260508040056 | 43 | 262 | 0.0 | 1.0 | 0.00 | 0.03 | 0.00 | 55 | 1007.3 |
| 20260508035550 | 44 | 262 | 0.0 | 1.0 | 0.00 | 0.04 | 0.03 | 55 | 1007.3 |
| 20260508035044 | 44 | 262 | 0.0 | 0.0 | 0.00 | 0.05 | 0.03 | 53 | 1007.3 |
| 20260508034538 | 44 | 262 | 0.0 | 1.0 | 0.00 | 0.06 | 0.03 | 52 | 1007.3 |
| 20260508034032 | 44 | 262 | 0.0 | 1.0 | 0.00 | 0.06 | 0.03 | 51 | 1007.3 |
| 20260508033744 | 44 | 262 | 0.0 | 1.0 | 0.00 | 0.06 | 0.03 | 51 | 1007.3 |
| 20260508033020 | 44 | 262 | 0.0 | 1.0 | 0.00 | 0.06 | 0.03 | 51 | 1007.2 |
| 20260508032514 | 44 | 262 | 0.0 | 2.0 | 0.00 | 0.06 | 0.03 | 50 | 1007.3 |
| 20260508032008 | 44 | 274 | 0.0 | 2.0 | 0.00 | 0.06 | 0.03 | 52 | 1007.1 |
| 20260508031503 | 43 | 274 | 0.0 | 2.0 | 0.00 | 0.06 | 0.03 | 51 | 1007.1 |
| 20260508031442 | 43 | 26 | 0.0 | 1.0 | 0.00 | 0.06 | 0.03 | 56 | 1007.2 |
| 20260508030450 | 43 | 26 | 0.0 | 1.0 | 0.00 | 0.06 | 0.03 | 57 | 1007.2 |
| 20260508025944 | 43 | 26 | 0.0 | 1.0 | 0.00 | 0.06 | 0.03 | 53 | 1007.1 |
| 20260508025438 | 43 | 26 | 0.0 | 1.0 | 0.00 | 0.06 | 0.03 | 55 | 1007.1 |
| 20260508024932 | 43 | 26 | 0.0 | 0.0 | 0.00 | 0.06 | 0.03 | 55 | 1007.2 |
| 20260508024426 | 43 | 26 | 0.0 | 1.0 | 0.00 | 0.06 | 0.03 | 53 | 1007.1 |
| 20260508023920 | 44 | 26 | 0.0 | 1.0 | 0.00 | 0.06 | 0.03 | 52 | 1007.1 |
| 20260508023414 | 44 | 26 | 0.0 | 1.0 | 0.00 | 0.06 | 0.03 | 50 | 1007.1 |
| 20260508022914 | 44 | 26 | 0.0 | 0.0 | 0.00 | 0.06 | 0.03 | 50 | 1006.9 |
| 20260508022410 | 44 | 26 | 0.0 | 1.0 | 0.00 | 0.06 | 0.03 | 49 | 1006.9 |
| 20260508021911 | 44 | 26 | 0.0 | 1.0 | 0.00 | 0.06 | 0.03 | 50 | 1006.8 |
| 20260508021407 | 45 | 26 | 0.0 | 0.0 | 0.00 | 0.06 | 0.03 | 52 | 1006.9 |
| 20260508021124 | 45 | 26 | 0.0 | 0.0 | 0.00 | 0.06 | 0.03 | 49 | 1006.9 |
| 20260508020402 | 46 | 26 | 0.0 | 0.0 | 0.00 | 0.06 | 0.03 | 49 | 1006.9 |
| 20260508020353 | 46 | 26 | 0.0 | 0.0 | 0.00 | 0.06 | 0.03 | 47 | 1006.9 |
| 20260508015624 | 46 | 26 | 0.0 | 0.0 | 0.00 | 0.06 | 0.03 | 46 | 1006.8 |
| 20260508014858 | 46 | 26 | 0.0 | 0.0 | 0.00 | 0.06 | 0.03 | 45 | 1006.8 |
| 20260508014359 | 47 | 26 | 0.0 | 0.0 | 0.00 | 0.06 | 0.03 | 43 | 1006.9 |
| 20260508013858 | 47 | 26 | 0.0 | 0.0 | 0.00 | 0.06 | 0.03 | 44 | 1006.6 |
| 20260508013359 | 47 | 26 | 0.0 | 0.0 | 0.00 | 0.06 | 0.03 | 45 | 1006.5 |
| 20260508013123 | 47 | 26 | 0.0 | 0.0 | 0.00 | 0.06 | 0.03 | 43 | 1006.4 |
| 20260508012400 | 48 | 26 | 0.0 | 0.0 | 0.00 | 0.06 | 0.03 | 43 | 1006.5 |
| 20260508011854 | 48 | 26 | 0.0 | 0.0 | 0.00 | 0.06 | 0.03 | 46 | 1006.6 |
| 20260508011355 | 49 | 26 | 0.0 | 0.0 | 0.00 | 0.06 | 0.03 | 42 | 1006.4 |
| 20260508010855 | 49 | 26 | 0.0 | 0.0 | 0.00 | 0.06 | 0.03 | 40 | 1006.3 |
| 20260508010355 | 50 | 26 | 0.0 | 0.0 | 0.00 | 0.06 | 0.03 | 39 | 1006.2 |
| 20260508005856 | 50 | 26 | 0.0 | 0.0 | 0.00 | 0.06 | 0.03 | 38 | 1006.2 |
| 20260508005354 | 51 | 26 | 0.0 | 0.0 | 0.00 | 0.06 | 0.03 | 37 | 1006.1 |
| 20260508004855 | 51 | 26 | 0.0 | 0.0 | 0.00 | 0.06 | 0.03 | 35 | 1005.9 |
| 20260508004355 | 51 | 26 | 0.0 | 0.0 | 0.00 | 0.06 | 0.03 | 35 | 1005.9 |
| 20260508003856 | 51 | 26 | 0.0 | 0.0 | 0.00 | 0.06 | 0.03 | 34 | 1005.8 |
| 20260508003352 | 51 | 26 | 0.0 | 0.0 | 0.00 | 0.06 | 0.03 | 33 | 1005.7 |
| 20260508002851 | 52 | 91 | 0.0 | 0.0 | 0.00 | 0.06 | 0.03 | 33 | 1005.6 |
| 20260508002351 | 52 | 91 | 0.0 | 0.0 | 0.00 | 0.06 | 0.03 | 33 | 1005.5 |
| 20260508001852 | 52 | 92 | 0.0 | 0.0 | 0.00 | 0.06 | 0.03 | 32 | 1005.5 |
| 20260508001614 | 53 | 92 | 0.0 | 0.0 | 0.00 | 0.06 | 0.03 | 31 | 1005.4 |
| 20260508000852 | 53 | 92 | 0.0 | 0.0 | 0.00 | 0.06 | 0.03 | 29 | 1005.4 |
| 20260508000352 | 53 | 92 | 0.0 | 0.0 | 0.00 | 0.06 | 0.03 | 29 | 1005.3 |
| 20260507235850 | 53 | 92 | 0.0 | 0.0 | 0.00 | 0.06 | 0.03 | 29 | 1005.2 |
| 20260507235349 | 54 | 92 | 0.0 | 0.0 | 0.00 | 0.06 | 0.03 | 30 | 1005.2 |
| 20260507234849 | 54 | 91 | 0.0 | 0.0 | 0.00 | 0.06 | 0.03 | 29 | 1005.2 |
| 20260507234339 | 55 | 287 | 0.0 | 0.0 | 0.00 | 0.06 | 0.03 | 29 | 1005.1 |
| 20260507233833 | 55 | 287 | 0.0 | 0.0 | 0.00 | 0.06 | 0.03 | 29 | 1005.0 |
| 20260507233327 | 55 | 287 | 0.0 | 0.0 | 0.00 | 0.06 | 0.03 | 28 | 1004.9 |
| 20260507232821 | 56 | 287 | 0.0 | 0.0 | 0.00 | 0.06 | 0.03 | 28 | 1004.8 |
| 20260507232315 | 56 | 287 | 0.0 | 0.0 | 0.00 | 0.06 | 0.03 | 26 | 1004.8 |
| 20260507231809 | 57 | 287 | 0.0 | 0.0 | 0.00 | 0.06 | 0.03 | 25 | 1004.7 |
| 20260507231303 | 57 | 287 | 0.0 | 0.0 | 0.00 | 0.06 | 0.03 | 25 | 1004.7 |
| 20260507230758 | 58 | 248 | 0.0 | 0.0 | 0.00 | 0.06 | 0.03 | 26 | 1004.6 |
| 20260507230251 | 58 | 248 | 0.0 | 0.0 | 0.00 | 0.06 | 0.03 | 25 | 1004.6 |
| 20260507225745 | 58 | 248 | 0.0 | 0.0 | 0.00 | 0.06 | 0.03 | 25 | 1004.5 |
| 20260507225719 | 59 | 248 | 0.0 | 0.0 | 0.00 | 0.06 | 0.03 | 25 | 1004.4 |
| 20260507224733 | 59 | 248 | 0.0 | 0.0 | 0.00 | 0.06 | 0.03 | 24 | 1004.3 |
| 20260507224448 | 59 | 248 | 0.0 | 0.0 | 0.00 | 0.06 | 0.03 | 23 | 1004.4 |
| 20260507223721 | 59 | 271 | 0.0 | 1.0 | 0.00 | 0.06 | 0.03 | 23 | 1004.3 |
| 20260507223437 | 60 | 271 | 0.0 | 2.0 | 0.00 | 0.06 | 0.03 | 25 | 1004.2 |
| 20260507222709 | 61 | 272 | 0.0 | 2.0 | 0.00 | 0.06 | 0.03 | 22 | 1004.1 |
| 20260507222204 | 61 | 180 | 0.0 | 0.0 | 0.00 | 0.06 | 0.03 | 23 | 1003.9 |
| 20260507221658 | 61 | 300 | 0.0 | 0.0 | 0.00 | 0.06 | 0.03 | 21 | 1004.0 |
| 20260507221151 | 62 | 294 | 0.0 | 1.0 | 0.00 | 0.06 | 0.03 | 20 | 1004.0 |
| 20260507220645 | 61 | 339 | 0.0 | 4.0 | 0.00 | 0.06 | 0.03 | 22 | 1004.1 |
| 20260507220139 | 61 | 224 | 1.0 | 5.0 | 0.00 | 0.06 | 0.03 | 21 | 1004.0 |
| 20260507215633 | 61 | 257 | 1.0 | 5.0 | 0.00 | 0.06 | 0.03 | 21 | 1004.0 |
| 20260507215127 | 62 | 303 | 1.0 | 4.0 | 0.00 | 0.07 | 0.03 | 21 | 1004.0 |
| 20260507214620 | 62 | 275 | 1.0 | 5.0 | 0.00 | 0.07 | 0.03 | 19 | 1003.9 |
| 20260507214113 | 62 | 200 | 1.0 | 5.0 | 0.00 | 0.07 | 0.03 | 23 | 1003.9 |
| 20260507213607 | 61 | 265 | 1.0 | 3.0 | 0.00 | 0.07 | 0.03 | 22 | 1003.9 |
| 20260507213101 | 61 | 248 | 0.0 | 2.0 | 0.00 | 0.07 | 0.03 | 22 | 1003.9 |
| 20260507212815 | 62 | 267 | 0.0 | 0.0 | 0.00 | 0.07 | 0.03 | 19 | 1004.0 |
| 20260507212049 | 62 | 281 | 0.0 | 0.0 | 0.00 | 0.07 | 0.03 | 21 | 1003.9 |
| 20260507211543 | 62 | 254 | 0.0 | 0.0 | 0.00 | 0.07 | 0.03 | 20 | 1003.9 |
| 20260507211037 | 63 | 302 | 0.0 | 0.0 | 0.00 | 0.07 | 0.03 | 19 | 1003.8 |
| 20260507210531 | 64 | 333 | 0.0 | 0.0 | 0.00 | 0.07 | 0.03 | 18 | 1003.8 |
| 20260507210027 | 64 | 346 | 1.0 | 4.0 | 0.00 | 0.08 | 0.03 | 20 | 1003.8 |
| 20260507205526 | 62 | 347 | 1.0 | 4.0 | 0.00 | 0.08 | 0.03 | 21 | 1003.8 |
| 20260507205249 | 62 | 236 | 1.0 | 5.0 | 0.00 | 0.08 | 0.03 | 23 | 1003.7 |
| 20260507204527 | 62 | 227 | 1.0 | 5.0 | 0.00 | 0.09 | 0.03 | 20 | 1003.6 |
| 20260507204028 | 62 | 257 | 1.0 | 8.0 | 0.00 | 0.09 | 0.03 | 20 | 1003.7 |
| 20260507203526 | 63 | 337 | 2.0 | 8.0 | 0.00 | 0.10 | 0.03 | 20 | 1003.9 |
| 20260507203027 | 64 | 247 | 2.0 | 8.0 | 0.00 | 0.10 | 0.03 | 18 | 1003.7 |
| 20260507202526 | 66 | 207 | 1.0 | 8.0 | 0.00 | 0.10 | 0.03 | 16 | 1003.7 |
| 20260507202026 | 67 | 223 | 1.0 | 3.0 | 0.00 | 0.11 | 0.03 | 17 | 1003.6 |
| 20260507201527 | 67 | 242 | 2.0 | 4.0 | 0.00 | 0.11 | 0.03 | 18 | 1003.8 |
| 20260507201028 | 66 | 225 | 1.0 | 4.0 | 0.00 | 0.11 | 0.03 | 21 | 1003.8 |
| 20260507200745 | 66 | 337 | 0.0 | 3.0 | 0.00 | 0.12 | 0.03 | 18 | 1003.8 |
| 20260507200026 | 65 | 254 | 0.0 | 0.0 | 0.00 | 0.12 | 0.03 | 19 | 1003.8 |
| 20260507195528 | 65 | 278 | 0.0 | 3.0 | 0.00 | 0.12 | 0.03 | 19 | 1003.8 |
| 20260507195254 | 64 | 329 | 1.0 | 3.0 | 0.00 | 0.13 | 0.03 | 22 | 1003.8 |
| 20260507194528 | 63 | 283 | 1.0 | 3.0 | 0.00 | 0.13 | 0.03 | 21 | 1003.9 |
| 20260507194247 | 64 | 261 | 2.0 | 6.0 | 0.00 | 0.13 | 0.03 | 20 | 1003.8 |
| 20260507193521 | 65 | 333 | 1.0 | 6.0 | 0.00 | 0.13 | 0.03 | 20 | 1003.8 |
| 20260507193015 | 65 | 234 | 0.0 | 0.0 | 0.00 | 0.14 | 0.03 | 21 | 1003.9 |
| 20260507192509 | 64 | 355 | 0.0 | 0.0 | 0.00 | 0.14 | 0.03 | 20 | 1003.9 |
| 20260507192005 | 64 | 196 | 0.0 | 0.0 | 0.00 | 0.15 | 0.03 | 21 | 1004.0 |
| 20260507191457 | 64 | 267 | 0.0 | 0.0 | 0.00 | 0.16 | 0.03 | 22 | 1003.9 |
| 20260507191213 | 63 | 268 | 0.0 | 0.0 | 0.00 | 0.16 | 0.03 | 22 | 1004.0 |
| 20260507190706 | 62 | 221 | 0.0 | 0.0 | 0.00 | 0.17 | 0.03 | 24 | 1004.1 |
| 20260507185939 | 61 | 285 | 0.0 | 0.0 | 0.00 | 0.17 | 0.03 | 26 | 1004.2 |
| 20260507185433 | 62 | 0 | 0.0 | 0.0 | 0.00 | 0.18 | 0.03 | 25 | 1004.1 |
| 20260507184927 | 63 | 244 | 1.0 | 6.0 | 0.00 | 0.19 | 0.03 | 24 | 1004.2 |
| 20260507184421 | 65 | 251 | 2.0 | 6.0 | 0.00 | 0.20 | 0.03 | 24 | 1004.1 |
| 20260507184136 | 66 | 299 | 1.0 | 3.0 | 0.00 | 0.21 | 0.03 | 22 | 1004.1 |
| 20260507183409 | 66 | 15 | 1.0 | 3.0 | 0.00 | 0.22 | 0.03 | 24 | 1004.1 |
| 20260507182903 | 64 | 0 | 1.0 | 3.0 | 0.00 | 0.22 | 0.03 | 26 | 1004.1 |
| 20260507182358 | 64 | 263 | 2.0 | 6.0 | 0.00 | 0.24 | 0.03 | 23 | 1004.1 |
| 20260507181851 | 65 | 260 | 1.0 | 6.0 | 0.00 | 0.25 | 0.03 | 23 | 1004.2 |
| 20260507181345 | 65 | 315 | 0.0 | 4.0 | 0.00 | 0.25 | 0.03 | 23 | 1004.1 |
| 20260507180839 | 65 | 265 | 0.0 | 0.0 | 0.00 | 0.25 | 0.03 | 24 | 1004.2 |
| 20260507180333 | 64 | 242 | 0.0 | 0.0 | 0.00 | 0.25 | 0.03 | 22 | 1004.1 |
| 20260507175827 | 64 | 323 | 0.0 | 0.0 | 0.00 | 0.25 | 0.03 | 21 | 1004.2 |
| 20260507175327 | 64 | 269 | 0.0 | 0.0 | 0.00 | 0.25 | 0.03 | 25 | 1004.1 |
| 20260507174824 | 64 | 149 | 0.0 | 0.0 | 0.00 | 0.25 | 0.03 | 28 | 1004.3 |
| 20260507174324 | 63 | 315 | 0.0 | 0.0 | 0.00 | 0.25 | 0.03 | 32 | 1004.2 |
| 20260507173825 | 62 | 275 | 0.0 | 0.0 | 0.00 | 0.25 | 0.03 | 31 | 1004.4 |
| 20260507173324 | 62 | 292 | 0.0 | 0.0 | 0.00 | 0.25 | 0.03 | 34 | 1004.4 |
| 20260507172824 | 63 | 209 | 0.0 | 0.0 | 0.00 | 0.25 | 0.03 | 35 | 1004.4 |
| 20260507172323 | 63 | 169 | 0.0 | 0.0 | 0.00 | 0.25 | 0.03 | 31 | 1004.4 |
| 20260507171824 | 62 | 337 | 0.0 | 0.0 | 0.00 | 0.25 | 0.03 | 30 | 1004.4 |
| 20260507171323 | 62 | 253 | 0.0 | 0.0 | 0.00 | 0.25 | 0.03 | 34 | 1004.5 |
| 20260507171044 | 61 | 190 | 0.0 | 0.0 | 0.00 | 0.25 | 0.03 | 34 | 1004.6 |
| 20260507170324 | 61 | 233 | 0.0 | 0.0 | 0.00 | 0.25 | 0.03 | 34 | 1004.6 |
| 20260507165825 | 62 | 206 | 0.0 | 0.0 | 0.00 | 0.25 | 0.03 | 34 | 1004.6 |
| 20260507165325 | 62 | 187 | 0.0 | 0.0 | 0.00 | 0.25 | 0.03 | 37 | 1004.7 |
| 20260507164824 | 61 | 272 | 1.0 | 5.0 | 0.00 | 0.25 | 0.03 | 34 | 1004.6 |
| 20260507164543 | 62 | 169 | 2.0 | 7.0 | 0.00 | 0.25 | 0.03 | 36 | 1004.8 |
| 20260507163824 | 63 | 196 | 2.0 | 7.0 | 0.00 | 0.25 | 0.03 | 35 | 1004.8 |
| 20260507163545 | 62 | 213 | 2.0 | 10.0 | 0.00 | 0.25 | 0.03 | 38 | 1004.7 |
| 20260507163045 | 61 | 198 | 2.0 | 10.0 | 0.00 | 0.25 | 0.03 | 39 | 1004.8 |
| 20260507162313 | 62 | 289 | 2.0 | 8.0 | 0.00 | 0.25 | 0.03 | 36 | 1004.8 |
| 20260507161807 | 63 | 286 | 1.0 | 8.0 | 0.00 | 0.25 | 0.03 | 35 | 1004.7 |
| 20260507161301 | 63 | 214 | 0.0 | 0.0 | 0.00 | 0.25 | 0.03 | 35 | 1004.8 |
| 20260507160755 | 62 | 317 | 0.0 | 0.0 | 0.00 | 0.25 | 0.03 | 37 | 1004.7 |
| 20260507160249 | 62 | 239 | 0.0 | 0.0 | 0.00 | 0.25 | 0.03 | 38 | 1004.9 |
| 20260507155742 | 61 | 213 | 0.0 | 0.0 | 0.00 | 0.25 | 0.03 | 39 | 1004.9 |
| 20260507155243 | 61 | 203 | 0.0 | 0.0 | 0.00 | 0.25 | 0.03 | 38 | 1005.1 |
| 20260507154740 | 60 | 84 | 0.0 | 0.0 | 0.00 | 0.25 | 0.03 | 40 | 1005.2 |
| 20260507154238 | 59 | 69 | 0.0 | 0.0 | 0.00 | 0.25 | 0.03 | 39 | 1005.3 |
| 20260507153957 | 60 | 28 | 0.0 | 0.0 | 0.00 | 0.25 | 0.03 | 39 | 1005.2 |
| 20260507153239 | 59 | 5 | 0.0 | 0.0 | 0.00 | 0.25 | 0.03 | 38 | 1005.2 |
| 20260507152737 | 59 | 226 | 0.0 | 0.0 | 0.00 | 0.25 | 0.03 | 44 | 1005.3 |
| 20260507152500 | 58 | 193 | 0.0 | 0.0 | 0.00 | 0.25 | 0.03 | 50 | 1005.4 |
| 20260507151735 | 57 | 53 | 0.0 | 0.0 | 0.00 | 0.25 | 0.03 | 47 | 1005.3 |
| 20260507151456 | 57 | 53 | 0.0 | 0.0 | 0.00 | 0.25 | 0.03 | 47 | 1005.3 |
| 20260507150735 | 57 | 53 | 0.0 | 0.0 | 0.00 | 0.25 | 0.03 | 46 | 1005.3 |
| 20260507150500 | 57 | 53 | 0.0 | 0.0 | 0.00 | 0.25 | 0.03 | 47 | 1005.4 |
| 20260507145735 | 57 | 53 | 0.0 | 0.0 | 0.00 | 0.25 | 0.03 | 47 | 1005.3 |
| 20260507145235 | 57 | 53 | 0.0 | 3.0 | 0.00 | 0.25 | 0.03 | 47 | 1005.4 |
| 20260507144730 | 57 | 53 | 1.0 | 4.0 | 0.00 | 0.25 | 0.03 | 48 | 1005.4 |
| 20260507144712 | 58 | 65 | 2.0 | 4.0 | 0.00 | 0.25 | 0.03 | 47 | 1005.4 |
| 20260507143730 | 58 | 59 | 1.0 | 4.0 | 0.00 | 0.25 | 0.03 | 48 | 1005.4 |
| 20260507143231 | 58 | 55 | 0.0 | 0.0 | 0.00 | 0.25 | 0.03 | 50 | 1005.5 |
| 20260507142730 | 58 | 57 | 0.0 | 0.0 | 0.00 | 0.25 | 0.03 | 49 | 1005.5 |
| 20260507142230 | 57 | 66 | 0.0 | 0.0 | 0.00 | 0.25 | 0.03 | 49 | 1005.4 |
| 20260507141730 | 57 | 108 | 0.0 | 0.0 | 0.00 | 0.25 | 0.03 | 52 | 1005.5 |
| 20260507141230 | 58 | 61 | 0.0 | 0.0 | 0.00 | 0.25 | 0.03 | 52 | 1005.6 |
| 20260507140731 | 58 | 81 | 0.0 | 0.0 | 0.00 | 0.25 | 0.03 | 53 | 1005.7 |
| 20260507140447 | 57 | 205 | 0.0 | 0.0 | 0.00 | 0.25 | 0.03 | 56 | 1005.8 |
| 20260507135727 | 56 | 205 | 0.0 | 0.0 | 0.00 | 0.25 | 0.03 | 55 | 1005.7 |
| 20260507135226 | 56 | 302 | 0.0 | 0.0 | 0.00 | 0.25 | 0.03 | 56 | 1005.8 |
| 20260507135213 | 56 | 169 | 0.0 | 0.0 | 0.00 | 0.25 | 0.03 | 56 | 1005.8 |
| 20260507134451 | 55 | 55 | 0.0 | 0.0 | 0.00 | 0.25 | 0.03 | 55 | 1005.8 |
| 20260507133726 | 55 | 173 | 0.0 | 0.0 | 0.00 | 0.25 | 0.03 | 57 | 1005.8 |
| 20260507133225 | 55 | 202 | 0.0 | 0.0 | 0.00 | 0.25 | 0.03 | 60 | 1006.0 |
| 20260507132726 | 54 | 141 | 0.0 | 0.0 | 0.00 | 0.25 | 0.03 | 58 | 1006.0 |
| 20260507132227 | 54 | 24 | 0.0 | 0.0 | 0.00 | 0.25 | 0.03 | 60 | 1006.0 |
| 20260507131947 | 54 | 329 | 0.0 | 0.0 | 0.00 | 0.25 | 0.03 | 61 | 1006.2 |
| 20260507131225 | 54 | 323 | 0.0 | 0.0 | 0.00 | 0.25 | 0.03 | 59 | 1006.1 |
| 20260507130723 | 53 | 355 | 0.0 | 0.0 | 0.00 | 0.25 | 0.03 | 63 | 1006.0 |
| 20260507130221 | 53 | 321 | 0.0 | 0.0 | 0.00 | 0.25 | 0.03 | 63 | 1006.1 |
| 20260507125721 | 53 | 179 | 0.0 | 0.0 | 0.00 | 0.25 | 0.03 | 65 | 1006.1 |
| 20260507125217 | 53 | 189 | 0.0 | 0.0 | 0.00 | 0.25 | 0.03 | 65 | 1006.1 |
| 20260507124718 | 53 | 211 | 0.0 | 0.0 | 0.00 | 0.25 | 0.03 | 66 | 1006.1 |
| 20260507124219 | 53 | 192 | 0.0 | 0.0 | 0.00 | 0.25 | 0.03 | 66 | 1006.1 |
| 20260507123718 | 52 | 355 | 0.0 | 0.0 | 0.00 | 0.25 | 0.03 | 68 | 1006.1 |
| 20260507123438 | 52 | 175 | 0.0 | 0.0 | 0.00 | 0.25 | 0.03 | 68 | 1006.2 |
| 20260507122717 | 51 | 175 | 0.0 | 0.0 | 0.00 | 0.25 | 0.03 | 69 | 1006.2 |
| 20260507122215 | 51 | 32 | 0.0 | 2.0 | 0.00 | 0.25 | 0.03 | 68 | 1006.2 |
| 20260507121712 | 50 | 32 | 1.0 | 4.0 | 0.00 | 0.25 | 0.03 | 70 | 1006.2 |
| 20260507121433 | 50 | 32 | 1.0 | 4.0 | 0.00 | 0.25 | 0.03 | 72 | 1006.1 |